Location: Chanteloup
(48.8560°N, 2.7390°E)
Time: 04:09:24
(UTC+00:00)

Cosmos 2333 Rocket - Pass Details

Date: 24 October 2021
Orbit: 837 x 865 km, 70.8° (Epoch: 05 December)

Event Time Altitude Azimuth Distance (km) Brightness Sun altitude
Rises 20:04:22 0° 221° (SW) 3,389 5.6 -33.5°
Reaches altitude 10° 20:06:51 10° 225° (SW) 2,461 4.8 -33.8°
Enters shadow 20:09:38 29° 238° (WSW) 1,507 3.7 -34.3°
